H1 CPF 2 NER 2024 3 13 9 073 01 glonass116 H2 0907001 9116 36111 2024 3 13 0 0 0 2024 3 16 23 45 0 900 1 1 0 0 0 1 H9 10 0 60382 0.00000 0 12262516.988 -18712790.135 12247001.981 10 0 60382 900.00000 0 11684549.633 -17141111.158 14840762.543 10 0 60382 1800.00000 0 11157990.609 -15237143.051 17146208.876 10 0 60382 2700.00000 0 10731986.465 -13039782.900 19118624.002 10 0 60382 3600.00000 0 10448359.740 -10598332.995 20719776.931 10 0 60382 4500.00000 0 10339728.807 -7970663.303 21918657.953 10 0 60382 5400.00000 0 10428032.248 -5221025.997 22692072.732 10 0 60382 6300.00000 0 10723519.469 -2417612.574 23025084.563 10 0 60382 7200.00000 0 11224249.625 370045.518 22911297.012 10 0 60382 8100.00000 0 11916119.563 3073725.636 22352972.233 10 0 60382 9000.00000 0 12773419.504 5629103.245 21360983.157 10 0 60382 9900.00000 0 13759893.140 7978175.449 19954600.772 10 0 60382 10800.00000 0 14830257.893 10071419.496 18161120.612 10 0 60382 11700.00000 0 15932121.944 11869597.941 16015335.443 10 0 60382 12600.00000 0 17008218.030 13345136.688 13558863.955 10 0 60382 13500.00000 0 17998860.699 14483019.788 10839347.894 10 0 60382 14400.00000 0 18844524.272 15281164.837 7909532.623 10 0 60382 15300.00000 0 19488433.396 15750264.269 4826248.388 10 0 60382 16200.00000 0 19879057.353 15913100.102 1649311.638 10 0 60382 17100.00000 0 19972403.058 15803361.615 -1559632.629 10 0 60382 18000.00000 0 19734009.823 15464016.277 -4738305.106 10 0 60382 18900.00000 0 19140561.322 14945302.953 -7824999.839 10 0 60382 19800.00000 0 18181046.069 14302432.372 -10759781.776 10 0 60382 20700.00000 0 16857416.563 13593092.115 -13485650.758 10 0 60382 21600.00000 0 15184718.241 12874861.639 -15949649.179 10 0 60382 22500.00000 0 13190681.520 12202646.637 -18103891.711 10 0 60382 23400.00000 0 10914792.734 11626241.149 -19906496.976 10 0 60382 24300.00000 0 8406881.534 11188120.502 -21322403.085 10 0 60382 25200.00000 0 5725282.481 10921558.326 -22324051.249 10 0 60382 26100.00000 0 2934646.390 10849147.315 -22891924.199 10 0 60382 27000.00000 0 103491.550 10981786.406 -23014928.970 10 0 60382 27900.00000 0 -2698404.203 11318177.435 -22690616.542 10 0 60382 28800.00000 0 -5402662.839 11844852.985 -21925233.868 10 0 60382 29700.00000 0 -7944906.983 12536734.772 -20733606.961 10 0 60382 30600.00000 0 -10267194.669 13358199.590 -19138856.926 10 0 60382 31500.00000 0 -12320187.120 14264608.393 -17171953.934 10 0 60382 32400.00000 0 -14064959.712 15204234.417 -14871117.390 10 0 60382 33300.00000 0 -15474381.085 16120509.246 -12281073.509 10 0 60382 34200.00000 0 -16534003.334 16954492.023 -9452184.521 10 0 60382 35100.00000 0 -17242426.754 17647457.305 -6439466.426 10 0 60382 36000.00000 0 -17611124.710 18143491.839 -3301514.556 10 0 60382 36900.00000 0 -17663737.051 18391989.866 -99358.356 10 0 60382 37800.00000 0 -17434862.986 18349940.811 3104731.718 10 0 60382 38700.00000 0 -16968405.575 17983911.909 6248461.212 10 0 60382 39600.00000 0 -16315538.992 17271641.301 9270728.092 10 0 60382 40500.00000 0 -15532385.565 16203173.726 12112814.188 10 0 60382 41400.00000 0 -14677501.774 14781490.345 14719527.990 10 0 60382 42300.00000 0 -13809280.152 13022605.783 17040276.230 10 0 60382 43200.00000 0 -12983377.268 10955127.909 19030043.484 10 0 60382 44100.00000 0 -12250276.438 8619298.461 20650261.078 10 0 60382 45000.00000 0 -11653087.767 6065554.306 21869548.982 10 0 60382 45900.00000 0 -11225677.731 3352668.972 22664317.090 10 0 60382 46800.00000 0 -10991206.376 545551.312 23019215.092 10 0 60382 47700.00000 0 -10961132.944 -2287207.777 22927423.030 10 0 60382 48600.00000 0 -11134730.995 -5075939.540 22390777.692 10 0 60382 49500.00000 0 -11499132.793 -7752545.355 21419732.888 10 0 60382 50400.00000 0 -12029900.670 -10253079.767 20033154.703 10 0 60382 51300.00000 0 -12692101.151 -12520162.580 18257955.685 10 0 60382 52200.00000 0 -13441836.739 -14505121.106 16128574.855 10 0 60382 53100.00000 0 -14228171.131 -16169774.726 13686313.170 10 0 60382 54000.00000 0 -14995367.224 -17487788.651 10978536.798 10 0 60382 54900.00000 0 -15685344.059 -18445541.508 8057763.020 10 0 60382 55800.00000 0 -16240249.511 -19042471.436 4980645.968 10 0 60382 56700.00000 0 -16605040.496 -19290887.016 1806881.422 10 0 60382 57600.00000 0 -16729961.880 -19215251.623 -1401948.434 10 0 60382 58500.00000 0 -16572819.288 -18850971.780 -4583567.951 10 0 60382 59400.00000 0 -16100949.464 -18242740.892 -7676215.530 10 0 60382 60300.00000 0 -15292804.352 -17442508.373 -10619842.182 10 0 60382 61200.00000 0 -14139081.152 -16507159.971 -13357277.651 10 0 60382 62100.00000 0 -12643349.608 -15496007.200 -15835341.301 10 0 60382 63000.00000 0 -10822148.800 -14468191.786 -18005876.087 10 0 60382 63900.00000 0 -8704547.922 -13480114.597 -19826685.424 10 0 60382 64800.00000 0 -6331187.985 -12582997.370 -21262354.764 10 0 60382 65700.00000 0 -3752842.993 -11820679.966 -22284941.984 10 0 60382 66600.00000 0 -1028559.323 -11227745.894 -22874523.203 10 0 60382 67500.00000 0 1776550.445 -10828055.020 -23019583.434 10 0 60382 68400.00000 0 4593768.520 -10633745.304 -22717244.445 10 0 60382 69300.00000 0 7353386.251 -10644745.665 -21973325.156 10 0 60382 70200.00000 0 9987363.881 -10848820.670 -20802233.135 10 0 60382 71100.00000 0 12431925.722 -11222145.294 -19226688.847 10 0 60382 72000.00000 0 14629983.144 -11730385.760 -17277287.552 10 0 60382 72900.00000 0 16533284.879 -12330240.943 -14991906.872 10 0 60382 73800.00000 0 18104205.284 -12971379.331 -12414971.152 10 0 60382 74700.00000 0 19317096.212 -13598689.592 -9596586.664 10 0 60382 75600.00000 0 20159146.435 -14154749.312 -6591564.435 10 0 60382 76500.00000 0 20630713.184 -14582407.024 -3458349.884 10 0 60382 77400.00000 0 20745112.678 -14827367.628 -257880.559 10 0 60382 78300.00000 0 20527879.402 -14840671.043 2947605.185 10 0 60382 79200.00000 0 20015526.426 -14580958.388 6095784.629 10 0 60382 80100.00000 0 19253860.155 -14016429.024 9125467.761 10 0 60382 81000.00000 0 18295921.782 -13126404.975 11977790.593 10 0 60382 81900.00000 0 17199643.283 -11902436.003 14597360.962 10 0 60382 82800.00000 0 16025317.716 -10348898.142 16933334.209 10 0 60382 83700.00000 0 14832991.027 -8483059.997 18940397.839 10 0 60382 84600.00000 0 13679885.506 -6334613.515 20579646.336 10 0 60382 85500.00000 0 12617963.240 -3944688.403 21819329.695 10 0 60383 0.00000 0 11691731.702 -1364391.112 22635461.854 10 0 60383 900.00000 0 10936382.483 1347072.729 23012278.477 10 0 60383 1800.00000 0 10376341.660 4124611.456 22942535.021 10 0 60383 2700.00000 0 10024289.977 6899709.532 22427641.578 10 0 60383 3600.00000 0 9880694.271 9603034.042 21477631.198 10 0 60383 4500.00000 0 9933868.394 12167079.695 20110963.145 10 0 60383 5400.00000 0 10160560.493 14528743.482 18354164.855 10 0 60383 6300.00000 0 10527041.529 16631723.193 16241319.290 10 0 60383 7200.00000 0 10990649.016 18428641.202 13813407.232 10 0 60383 8100.00000 0 11501721.021 19882806.185 11117516.713 10 0 60383 9000.00000 0 12005839.055 20969540.288 8205934.301 10 0 60383 9900.00000 0 12446285.468 21677017.102 5135135.334 10 0 60383 10800.00000 0 12766611.789 22006576.118 1964692.222 10 0 60383 11700.00000 0 12913209.626 21972500.989 -1243878.313 10 0 60383 12600.00000 0 12837775.370 21601271.342 -4428306.834 10 0 60383 13500.00000 0 12499564.245 20930319.852 -7526778.489 10 0 60383 14400.00000 0 11867337.902 20006347.072 -10479132.514 10 0 60383 15300.00000 0 10920922.471 18883265.015 -13228030.456 10 0 60383 16200.00000 0 9652310.326 17619856.149 -15720070.269 10 0 60383 17100.00000 0 8066257.782 16277246.285 -17906824.531 10 0 60383 18000.00000 0 6180352.187 14916297.693 -19745782.534 10 0 60383 18900.00000 0 4024543.990 13595031.984 -21201177.923 10 0 60383 19800.00000 0 1640161.745 12366191.007 -22244685.883 10 0 60383 20700.00000 0 -921550.294 11275038.096 -22855976.341 10 0 60383 21600.00000 0 -3601312.461 10357491.890 -23023112.476 10 0 60383 22500.00000 0 -6334030.807 9638670.918 -22742786.728 10 0 60383 23400.00000 0 -9051267.686 9131909.941 -22020389.529 10 0 60383 24300.00000 0 -11683859.903 8838289.206 -20869909.135 10 0 60383 25200.00000 0 -14164576.185 8746696.247 -19313664.095 10 0 60383 26100.00000 0 -16430703.816 8834417.469 -17381873.060 10 0 60383 27000.00000 0 -18426456.992 9068234.381 -15112069.830 10 0 60383 27900.00000 0 -20105106.716 9405977.983 -12548374.559 10 0 60383 28800.00000 0 -21430743.379 9798475.328 -9740635.054 10 0 60383 29700.00000 0 -22379598.550 10191805.503 -6743454.769 10 0 60383 30600.00000 0 -22940870.897 10529768.986 -3615126.588 10 0 60383 31500.00000 0 -23117022.026 10756465.116 -416493.561 10 0 60383 32400.00000 0 -22923530.456 10818867.699 2790240.600 10 0 60383 33300.00000 0 -22388114.912 10669288.767 5942727.388 10 0 60383 34200.00000 0 -21549460.577 10267625.300 8979691.222 10 0 60383 35100.00000 0 -20455503.003 9583293.006 11842124.605 10 0 60383 36000.00000 0 -19161342.972 8596764.626 14474436.914 10 0 60383 36900.00000 0 -17726881.005 7300647.176 16825534.133 10 0 60383 37800.00000 0 -16214271.777 5700252.106 18849808.514 10 0 60383 38700.00000 0 -14685305.821 3813633.859 20508019.261 10 0 60383 39600.00000 0 -13198828.622 1671094.631 21768047.639 10 0 60383 40500.00000 0 -11808305.047 -685824.479 22605512.641 10 0 60383 41400.00000 0 -10559630.617 -3205824.478 23004236.144 10 0 60383 42300.00000 0 -9489280.393 -5829740.607 22956549.377 10 0 60383 43200.00000 0 -8622871.884 -8492767.666 22463435.540 10 0 60383 44100.00000 0 -7974200.936 -11126926.980 21534506.363 10 0 60383 45000.00000 0 -7544789.801 -13663673.479 20187813.397 10 0 60383 45900.00000 0 -7323965.229 -16036535.670 18449497.741 10 0 60383 46800.00000 0 -7289462.396 -18183679.860 16353284.772 10 0 60383 47700.00000 0 -7408528.646 -20050292.999 13939833.295 10 0 60383 48600.00000 0 -7639480.177 -21590685.879 11255951.180 10 0 60383 49500.00000 0 -7933645.885 -22770029.850 8353692.063 10 0 60383 50400.00000 0 -8237616.359 -23565655.169 5289350.127 10 0 60383 51300.00000 0 -8495703.047 -23967857.247 2122371.964 10 0 60383 52200.00000 0 -8652503.735 -23980177.402 -1085793.707 10 0 60383 53100.00000 0 -8655465.730 -23619146.561 -4272886.254 10 0 60383 54000.00000 0 -8457338.150 -22913502.841 -7377040.220 10 0 60383 54900.00000 0 -8018409.135 -21902915.907 -10337985.767 10 0 60383 55800.00000 0 -7308432.750 -20636271.709 -13098218.954 10 0 60383 56700.00000 0 -6308163.272 -19169589.640 -15604118.993 10 0 60383 57600.00000 0 -5010430.971 -17563659.548 -17806990.653 10 0 60383 58500.00000 0 -3420712.740 -15881497.709 -19664011.460 10 0 60383 59400.00000 0 -1557172.010 -14185728.446 -21139065.321 10 0 60383 60300.00000 0 549835.320 -12536000.991 -22203446.414 10 0 60383 61200.00000 0 2858769.917 -10986549.731 -22836419.727 10 0 60383 62100.00000 0 5318392.429 -9583999.774 -23025627.380 10 0 60383 63000.00000 0 7869660.850 -8365509.500 -22767332.778 10 0 60383 63900.00000 0 10447964.015 -7357327.593 -22066497.695 10 0 60383 64800.00000 0 12985599.219 -6573824.668 -20936690.467 10 0 60383 65700.00000 0 15414391.608 -6017039.716 -19399826.673 10 0 60383 66600.00000 0 17668346.692 -5676759.976 -17485746.878 10 0 60383 67500.00000 0 19686225.780 -5531130.398 -15231639.126 10 0 60383 68400.00000 0 21413936.985 -5547766.477 -12681317.001 10 0 60383 69300.00000 0 22806641.893 -5685322.943 -9884367.004 10 0 60383 70200.00000 0 23830489.780 -5895451.360 -6895181.768 10 0 60383 71100.00000 0 24463906.727 -6125063.069 -3771898.043 10 0 60383 72000.00000 0 24698385.665 -6318800.854 -575260.557 10 0 60383 72900.00000 0 24538744.513 -6421613.687 2632565.541 10 0 60383 73800.00000 0 24002842.005 -6381324.533 5789209.813 10 0 60383 74700.00000 0 23120763.860 -6151081.451 8833314.750 10 0 60383 75600.00000 0 21933514.321 -5691587.298 11705732.658 10 0 60383 76500.00000 0 20491268.988 -4973012.887 14350677.331 10 0 60383 77400.00000 0 18851263.250 -3976512.017 16716807.778 10 0 60383 78300.00000 0 17075405.740 -2695273.828 18758222.873 10 0 60383 79200.00000 0 15227717.462 -1135067.578 20435347.889 10 0 60383 80100.00000 0 13371704.161 685743.569 21715696.208 10 0 60383 81000.00000 0 11567771.810 2736720.911 22574492.177 10 0 60383 81900.00000 0 9870792.816 4976379.651 22995143.917 10 0 60383 82800.00000 0 8327923.862 7353687.102 22969557.750 10 0 60383 83700.00000 0 6976765.435 9809968.005 22498288.945 10 0 60383 84600.00000 0 5843938.609 12281138.506 21590526.450 10 0 60383 85500.00000 0 4944137.211 14700176.782 20263912.245 10 0 60384 0.00000 0 4279693.663 16999728.378 18544199.050 10 0 60384 900.00000 0 3840675.117 19114740.061 16464751.848 10 0 60384 1800.00000 0 3605505.606 20985010.462 14065904.864 10 0 60384 2700.00000 0 3542086.099 22557556.175 11394182.876 10 0 60384 3600.00000 0 3609365.635 23788692.235 8501403.541 10 0 60384 4500.00000 0 3759296.611 24645741.851 5443676.764 10 0 60384 5400.00000 0 3939091.526 25108304.082 2280320.171 10 0 60384 6300.00000 0 4093685.717 25169026.555 -927288.611 10 0 60384 7200.00000 0 4168301.824 24833850.907 -4116900.726 10 0 60384 8100.00000 0 4111007.285 24121720.595 -7226602.873 10 0 60384 9000.00000 0 3875156.290 23063763.203 -10196018.624 10 0 60384 9900.00000 0 3421612.413 21701981.365 -12967480.703 10 0 60384 10800.00000 0 2720657.185 20087507.046 -15487151.384 10 0 60384 11700.00000 0 1753503.068 18278492.173 -17706069.062 10 0 60384 12600.00000 0 513345.842 16337723.824 -19581100.605 10 0 60384 13500.00000 0 -994089.299 14330063.674 -21075780.971 10 0 60384 14400.00000 0 -2750532.397 12319818.588 -22161023.839 10 0 60384 15300.00000 0 -4725686.398 10368152.142 -22815689.482 10 0 60384 16200.00000 0 -6878257.730 8530644.952 -23026998.893 10 0 60384 17100.00000 0 -9157458.288 6855105.409 -22790786.057 10 0 60384 18000.00000 0 -11504917.448 5379721.956 -22111583.338 10 0 60384 18900.00000 0 -13856925.507 4131633.661 -21002537.988 10 0 60384 19800.00000 0 -16146915.928 3125978.372 -19485161.064 10 0 60384 20700.00000 0 -18308083.435 2365457.742 -17588913.087 10 0 60384 21600.00000 0 -20276029.088 1840436.680 -15350634.064 10 0 60384 22500.00000 0 -21991321.997 1529572.324 -12813828.457 10 0 60384 23400.00000 0 -23401870.449 1400945.246 -10027818.749 10 0 60384 24300.00000 0 -24465003.030 1413644.296 -7046783.944 10 0 60384 25200.00000 0 -25149172.290 1519737.201 -3928701.831 10 0 60384 26100.00000 0 -25435209.266 1666542.552 -734216.013 10 0 60384 27000.00000 0 -25317076.144 1799105.955 2474549.677 10 0 60384 27900.00000 0 -24802085.536 1862774.361 5635205.548 10 0 60384 28800.00000 0 -23910577.474 1805758.490 8686314.756 10 0 60384 29700.00000 0 -22675068.221 1581573.805 11568591.866 10 0 60384 30600.00000 0 -21138907.284 1151255.860 14226057.388 10 0 60384 31500.00000 0 -19354499.746 485255.576 16607125.428 10 0 60384 32400.00000 0 -17381169.150 -435066.206 18665603.250 10 0 60384 33300.00000 0 -15282750.988 -1616408.463 20361583.621 10 0 60384 34200.00000 0 -13125017.812 -3053007.801 21662213.048 10 0 60384 35100.00000 0 -10973043.548 -4726646.769 22542321.819 10 0 60384 36000.00000 0 -8888616.693 -6607192.828 22984904.438 10 0 60384 36900.00000 0 -6927809.597 -8653645.998 22981442.042 10 0 60384 37800.00000 0 -5138804.111 -10815652.107 22532061.309 10 0 60384 38700.00000 0 -3560062.976 -13035419.330 21645527.402 10 0 60384 39600.00000 0 -2218921.759 -15249958.958 20339071.417 10 0 60384 40500.00000 0 -1130658.575 -17393558.012 18638055.780 10 0 60384 41400.00000 0 -298078.998 -19400381.577 16575483.881 10 0 60384 42300.00000 0 288367.827 -21207097.293 14191363.066 10 0 60384 43200.00000 0 649947.875 -22755413.275 11531932.833 10 0 60384 44100.00000 0 818503.622 -23994424.174 8648772.522 10 0 60384 45000.00000 0 834866.683 -24882667.726 5597805.340 10 0 60384 45900.00000 0 746889.124 -25389805.999 2438217.481 10 0 60384 46800.00000 0 607176.866 -25497860.984 -768686.996 10 0 60384 47700.00000 0 470621.212 -25201952.588 -3960673.476 10 0 60384 48600.00000 0 391833.139 -24510507.827 -7075783.269 10 0 60384 49500.00000 0 422589.201 -23444932.079 -10053535.762 10 0 60384 50400.00000 0 609397.506 -22038755.750 -12836102.724 10 0 60384 51300.00000 0 991287.274 -20336291.740 -15369431.775 10 0 60384 52200.00000 0 1597916.139 -18390859.486 -17604297.101 10 0 60384 53100.00000 0 2448076.022 -16262649.588 -19497256.879 10 0 60384 54000.00000 0 3548661.706 -14016317.941 -21011498.824 10 0 60384 54900.00000 0 4894146.831 -11718409.537 -22117557.500 10 0 60384 55800.00000 0 6466590.743 -9434719.182 -22793889.481 10 0 60384 56700.00000 0 8236177.407 -7227698.858 -23027295.258 10 0 60384 57600.00000 0 10162265.308 -5154019.449 -22813179.642 10 0 60384 58500.00000 0 12194905.780 -3262388.095 -22155645.449 10 0 60384 59400.00000 0 14276767.525 -1591711.720 -21067418.379 10 0 60384 60300.00000 0 16345387.924 -169682.806 -19569604.128 10 0 60384 61200.00000 0 18335657.760 988154.110 -17691281.995 10 0 60384 62100.00000 0 20182435.938 1878816.889 -15468942.389 10 0 60384 63000.00000 0 21823185.022 2511764.665 -12945778.690 10 0 60384 63900.00000 0 23200517.096 2908247.125 -10170846.987 10 0 60384 64800.00000 0 24264543.022 3100152.635 -7198109.872 10 0 60384 65700.00000 0 24974926.142 3128404.844 -4085383.037 10 0 60384 66600.00000 0 25302553.770 3040976.653 -893205.546 10 0 60384 67500.00000 0 25230755.884 2890606.735 2316343.648 10 0 60384 68400.00000 0 24756019.579 2732316.425 5480859.198 10 0 60384 69300.00000 0 23888169.183 2620833.308 8538828.412 10 0 60384 70200.00000 0 22650004.631 2608031.656 11430831.390 10 0 60384 71100.00000 0 21076413.586 2740499.010 14100698.324 10 0 60384 72000.00000 0 19212995.044 3057332.606 16496601.010 10 0 60384 72900.00000 0 17114252.582 3588259.381 18572057.308 10 0 60384 73800.00000 0 14841433.297 4352159.351 20286829.242 10 0 60384 74700.00000 0 12460103.087 5356054.906 21607697.798 10 0 60384 75600.00000 0 10037559.487 6594608.854 22509100.102 10 0 60384 76500.00000 0 7640189.641 8050152.602 22973617.499 10 0 60384 77400.00000 0 5330882.890 9693243.662 22992305.913 10 0 60384 78300.00000 0 3166604.718 11483729.632 22564862.918 10 0 60384 79200.00000 0 1196231.793 13372274.806 21699628.876 10 0 60384 80100.00000 0 -541263.194 15302286.345 20413422.495 10 0 60384 81000.00000 0 -2018202.812 17212160.414 18731214.113 10 0 60384 81900.00000 0 -3219115.896 19037755.391 16685642.843 10 0 60384 82800.00000 0 -4141131.697 20714989.664 14316386.588 10 0 60384 83700.00000 0 -4793842.045 22182456.241 11669396.590 10 0 60384 84600.00000 0 -5198638.505 23383945.440 8796010.733 10 0 60384 85500.00000 0 -5387553.242 24270770.477 5751962.262 10 0 60385 0.00000 0 -5401653.162 24803798.682 2596302.927 10 0 60385 900.00000 0 -5289055.482 24955103.389 -609740.632 10 0 60385 1800.00000 0 -5102648.949 24709166.289 -3803950.945 10 0 60385 2700.00000 0 -4897617.303 24063580.356 -6924326.936 10 0 60385 3600.00000 0 -4728869.971 23029222.447 -9910286.581 10 0 60385 4500.00000 0 -4648489.014 21629888.080 -12703843.146 10 0 60385 5400.00000 0 -4703300.728 19901402.904 -15250731.708 10 0 60385 6300.00000 0 -4932675.052 17890247.441 -17501463.978 10 0 60385 7200.00000 0 -5366646.453 15651751.949 -19412290.806 10 0 60385 8100.00000 0 -6024436.395 13247936.298 -20946053.680 10 0 60385 9000.00000 0 -6913440.654 10745084.417 -22072908.724 10 0 60385 9900.00000 0 -8028725.277 8211154.022 -22770909.168 10 0 60385 10800.00000 0 -9353053.562 5713129.037 -23026435.031 10 0 60385 11700.00000 0 -10857444.272 3314424.483 -22834461.626 10 0 60385 12600.00000 0 -12502238.931 1072451.415 -22198661.536 10 0 60385 13500.00000 0 -14238634.656 -963557.200 -21131337.808 10 0 60385 14400.00000 0 -16010619.373 -2754369.688 -19653189.280 10 0 60385 15300.00000 0 -17757229.142 -4272152.485 -17792912.138 10 0 60385 16200.00000 0 -19415033.577 -5501382.982 -15586644.947 10 0 60385 17100.00000 0 -20920745.431 -6439241.028 -13077267.480 10 0 60385 18000.00000 0 -22213844.834 -7095463.568 -10313566.686 10 0 60385 18900.00000 0 -23239107.771 -7491669.608 -7349285.871 10 0 60385 19800.00000 0 -23948932.093 -7660185.028 -4242075.676 10 0 60385 20700.00000 0 -24305362.710 -7642418.010 -1052367.643 10 0 60385 21600.00000 0 -24281730.190 -7486855.000 2157807.134 10 0 60385 22500.00000 0 -23863833.342 -7246763.159 5326030.593 10 0 60385 23400.00000 0 -23050615.605 -6977697.813 8390717.069 10 0 60385 24300.00000 0 -21854306.659 -6734921.505 11292314.957 10 0 60385 25200.00000 0 -20300023.248 -6570844.908 13974466.704 10 0 60385 26100.00000 0 -18424846.134 -6532598.623 16385104.122 10 0 60385 27000.00000 0 -16276412.102 -6659839.108 18477457.641 10 0 60385 27900.00000 0 -13911080.166 -6982881.757 20210960.131 10 0 60385 28800.00000 0 -11391748.782 -7521240.044 21552028.160 10 0 60385 29700.00000 0 -8785415.111 -8282632.376 22474706.317 10 0 60385 30600.00000 0 -6160577.754 -9262498.441 22961162.904 10 0 60385 31500.00000 0 -3584590.485 -10444045.499 23002028.295 10 0 60385 32400.00000 0 -1121076.205 -11798822.826 22596570.192 10 0 60385 33300.00000 0 1172492.585 -13287800.634 21752703.021 10 0 60385 34200.00000 0 3246947.505 -14862908.736 20486831.651 10 0 60385 35100.00000 0 5063224.169 -16468971.247 18823532.609 10 0 60385 36000.00000 0 6593734.844 -18045957.053 16795078.773 10 0 60385 36900.00000 0 7823258.187 -19531452.635 14440816.415 10 0 60385 37800.00000 0 8749310.358 -20863254.402 11806406.138 10 0 60385 38700.00000 0 9381983.278 -21981972.536 8942941.809 10 0 60385 39600.00000 0 9743257.889 -22833537.584 5905964.026 10 0 60385 40500.00000 0 9865822.135 -23371504.822 2754386.751 10 0 60385 41400.00000 0 9791444.147 -23559059.604 -450642.445 10 0 60385 42300.00000 0 9568969.663 -23370639.165 -3646926.540 10 0 60385 43200.00000 0 9252028.654 -22793102.231 -6772424.732 10 0 60385 44100.00000 0 8896548.318 -21826396.593 -9766456.118 10 0 60385 45000.00000 0 8558177.864 -20483695.783 -12570877.834 10 0 60385 45900.00000 0 8289734.272 -18790998.194 -15131214.604 10 0 60385 46800.00000 0 8138777.294 -16786204.488 -17397717.638 10 0 60385 47700.00000 0 8145416.625 -14517710.991 -19326332.175 10 0 60385 48600.00000 0 8340444.327 -12042576.968 -20879554.889 10 0 60385 49500.00000 0 8743871.941 -9424341.461 -22027164.540 10 0 60385 50400.00000 0 9363934.706 -6730579.972 -22746811.726 10 0 60385 51300.00000 0 10196605.707 -4030302.052 -23024456.330 10 0 60385 52200.00000 0 11225641.360 -1391297.446 -22854644.147 10 0 60385 53100.00000 0 12423157.354 1122459.345 -22240617.168 10 0 60385 54000.00000 0 13750711.873 3453238.735 -21194255.125 10 0 60385 54900.00000 0 15160851.560 5551719.388 -19735849.050 10 0 60385 55800.00000 0 16599056.091 7378795.695 -17893710.782 10 0 60385 56700.00000 0 18006000.252 8906954.638 -15703625.524 10 0 60385 57600.00000 0 19320038.838 10121165.311 -13208157.611 10 0 60385 58500.00000 0 20479809.923 11019244.629 -10455822.700 10 0 60385 59400.00000 0 21426846.775 11611684.889 -7500142.330 10 0 60385 60300.00000 0 22108088.055 11920951.511 -4398599.307 10 0 60385 61200.00000 0 22478179.934 11980281.692 -1211514.637 10 0 60385 62100.00000 0 22501472.478 11832035.931 1999131.630 10 0 60385 63000.00000 0 22153625.475 11525673.324 5170911.952 10 0 60385 63900.00000 0 21422755.455 11115437.527 8242170.875 10 0 60385 64800.00000 0 20310075.104 10657852.424 11153228.135 10 0 60385 65700.00000 0 18829997.873 10209134.498 13847541.263 10 0 60385 66600.00000 0 17009703.189 9822632.157 16272804.644 10 0 60385 67500.00000 0 14888180.461 9546400.835 18381963.541 10 0 60385 68400.00000 0 12514791.894 9421016.585 20134123.590 10 0 60385 69300.00000 0 9947414.172 9477720.502 21495338.534 10 0 60385 70200.00000 0 7250236.423 9736972.046 22439261.626 10 0 60385 71100.00000 0 4491305.868 10207471.971 22947648.937 10 0 60385 72000.00000 0 1739922.753 10885695.667 23010705.645 10 0 60385 72900.00000 0 -936007.966 11755956.380 22627269.462 10 0 60385 73800.00000 0 -3472559.264 12790995.606 21804828.239 10 0 60385 74700.00000 0 -5812192.960 13953076.027 20559371.850 10 0 60385 75600.00000 0 -7905900.172 15195531.510 18915081.337 10 0 60385 76500.00000 0 -9714983.839 16464709.647 16903861.197 10 0 60385 77400.00000 0 -11212410.528 17702225.955 14564723.534 10 0 60385 78300.00000 0 -12383676.647 18847435.786 11943035.470 10 0 60385 79200.00000 0 -13227154.146 19840020.736 9089643.796 10 0 60385 80100.00000 0 -13753902.389 20622581.331 6059893.280 10 0 60385 81000.00000 0 -13986955.000 21143127.245 2912557.153 10 0 60385 81900.00000 0 -13960112.459 21357360.326 -291299.864 10 0 60385 82800.00000 0 -13716291.800 21230654.094 -3489504.070 10 0 60385 83700.00000 0 -13305503.473 20739645.918 -6619977.967 10 0 60385 84600.00000 0 -12782541.025 19873374.140 -9621944.624 10 0 60385 85500.00000 0 -12204481.455 18633911.402 -12437107.665 99